AirNav   Duncan Aviation - Near you to keep you flying
 
 1441 users online  

PAAN Gold King Creek Airport
Fairbanks, Alaska, USA

GOING TO FAIRBANKS?


FAA INFORMATION EFFECTIVE 21 APRIL 2022

Location

FAA Identifier: AK7
Lat/Long: 64-11-53.0000N 147-55-43.0000W
64-11.883333N 147-55.716667W
64.1980556,-147.9286111
(estimated)
Elevation: 1720 ft. / 524 m (estimated)
Variation: 25E (1965)
From city: 39 miles SE of FAIRBANKS, AK
Time zone: UTC -8 (UTC -9 during Standard Time)
Zip code: 99743

Airport Operations

Airport use: Open to the public
Activation date: 02/2001
Control tower: no
ARTCC: ANCHORAGE CENTER
FSS: FAIRBANKS FLIGHT SERVICE STATION [907-474-0788]
NOTAMs facility: FAI (NOTAM-D service available)
Attendance: UNATNDD
Wind indicator: yes
Segmented circle: no

Airport Communications

CTAF: 122.9

Nearby radio navigation aids

VOR radial/distance  VOR name  Freq  Var
FAIr156/36.2FAIRBANKS VORTAC108.6021E
ENNr107/37.9NENANA VORTAC115.8021E

 
NDB name  Hdg/Dist  Freq  Var  ID
ICE POOL107/36.452518EICW .. -.-. .--

Airport Services

Runway Information

Runway 9/27

Dimensions: 2558 x 17 ft. / 780 x 5 m
Surface: gravel/dirt, in fair condition
ROCKS UP TO 6 INCHES ON RY SFC.
RUNWAY 9  RUNWAY 27
Latitude: 64-11.993708N64-11.772323N
Longitude: 147-56.125273W147-55.307022W
Traffic pattern: leftleft
Runway heading: 097 magnetic, 122 true277 magnetic, 302 true
Obstructions: 38 ft. trees, 110 ft. right of centerline15 ft. brush, 69 ft. left and right of centerline

Airport Ownership and Management from official FAA records

Ownership: Publicly-owned
Owner: ALASKA DOT&PF NORTHERN REGION
2301 PEGER ROAD
FAIRBANKS, AK 99709
Phone 907-451-2200
Manager: SCOTT RANDBY
2301 PEGER ROAD
FAIRBANKS, AK 99709
Phone (907) 451-5280

Airport Operational Statistics

Aircraft based on the field: 1
Single engine airplanes: 1
    
Aircraft operations: 50/year *
100% local general aviation
* for 12-month period ending 31 December 2019

Additional Remarks

RY CONDITION NOT MONITORED; RECOMMEND VISUAL INSP PRIOR TO LANDING.
NO SVCS AVBL.
20 FT TREES ON BOTH SIDES OF RWY WITHIN 60-70 FT OF CENTERLINE.

Instrument Procedures

There are no published instrument procedures at PAAN.

Some nearby airports with instrument procedures:

PAHV - Healy River Airport (34 nm SW)
PAEI - Eielson Air Force Base (35 nm NE)
PANN - Nenana Municipal Airport (36 nm NW)
PAFA - Fairbanks International Airport (37 nm N)
PAFB - Ladd Army Airfield (39 nm N)
 
Loc | Ops | Rwys | IFR | FBO | Links
Com | Nav | Svcs | Stats | Notes

Crowley Maritime Corporation
 
Area around PAAN (Gold King Creek Airport)
 
Road maps at: MapQuest Bing Google
 
Aerial photo
WARNING: Photo may not be current or correct
Aerial photo of PAAN (Gold King Creek Airport)
Photo taken 18-Feb-2012
looking west.

Do you have a better or more recent aerial photo of Gold King Creek Airport that you would like to share? If so, please send us your photo.

 
Sectional chart

 
Airport distance calculator
Flying to Gold King Creek Airport? Find the distance to fly.

From to PAAN

Sunrise and sunset
Times for 16-May-2022
 Local
(UTC-8)
 Zulu
(UTC)
Morning civil twilight02:4110:41
Sunrise04:3312:33
Sunset23:0307:03
Evening civil twilight00:5508:55

Current date and time
Zulu (UTC)  16-May-2022 21:51:33
Local (UTC-8)  16-May-2022 13:51:33
 
METAR
PAEI 
35nm NE 
162056Z 00000KT 10SM VCSH SCT024 BKN031 OVC070 07/01 A2975 RMK AO2A SLP082 T00670006 55002 $
PANN 
37nm NW 
162131Z AUTO 32005KT 10SM BKN029 OVC050 06/01 A2977 RMK AO2 T00610011 TSNO
PAFA 
37nm N 
162053Z 16004KT 10SM BKN055 BKN100 08/00 A2977 RMK AO2 SLP088 T00780000 58004
PAIN 
38nm SW 
162142Z AUTO 35006KT 10SM -RA SCT004 BKN023 OVC040 03/01 A2974 RMK AO2 RAB04 P0000
PAFB 
39nm N 
162058Z 00000KT 10SM BKN050 BKN100 07/M01 A2978M RMK A02A SLP088 WND DATA ESTMD ALSTG/SLP ESTMD T00731013 57004 $
TAF
PAEI 
35nm NE 
161620Z 1616/1720 VRB04KT 9999 SCT006 BKN050 600505 QNH2976INS BECMG 1617/1618 VRB06KT 9999 NSW SCT010 BKN050 QNH2974INS BECMG 1622/1623 VRB06KT 9999 FEW010 BKN050 BKN070 600504 QNH2972INS BECMG 1705/1706 VRB06KT 9999 SCT040 SCT070 QNH2975INS BECMG 1711/1712 VRB06KT 9999 BKN030 600303 QNH2979INS TX10/1700Z TN02/1616Z
PAFA 
37nm N 
161730Z 1618/1724 36005KT P6SM VCSH BKN060 BKN100 FM170300 36007KT P6SM BKN060 BKN100 FM171400 02007KT P6SM VCFG BKN030 BKN070 FM172000 03007KT P6SM BKN050 BKN100
PAFB 
39nm N 
161400Z 1614/1720 05006KT 9999 SCT030 BKN040 QNH2978INS BECMG 1620/1621 03006KT 9999 VCSH BKN050 QNH2974INS BECMG 1704/1705 01006KT 9999 NSW SCT025 BKN040 QNH2976INS TX10/1700Z TN03/1614Z
NOTAMs
Click for the latest NOTAMs
NOTAMs are issued by the DoD/FAA and will open in a separate window not controlled by AirNav.

 

 
 

Would you like to see your business listed on this page?

 If your business provides an interesting product or service to pilots, flight crews, aircraft, or users of the Gold King Creek Airport, you should consider listing it here.  To start the listing process, click on the button below
 
Add a business
 

Other Pages about Gold King Creek Airport

Update a link
 
Copyright © AirNav, LLC. All rights reserved. Privacy Policy  Contact